Location: �terpigny
(49.8910°N, 2.9249°E)
Time: 04:47:05
(UTC+00:00)

Cosmos 332 Rocket - Pass Details

Date: 05 June 2022
Orbit: 681 x 703 km, 74.0° (Epoch: 05 July)

Event Time Altitude Azimuth Distance (km) Brightness Sun altitude
Exits shadow 21:54:05 16° 122° (ESE) 1,773 5.4 -13.3°
Maximum altitude 21:55:44 18° 97° (E) 1,634 5.4 -13.4°
Drops below altitude 10° 21:58:59 10° 54° (NE) 2,133 6.4 -13.6°
Sets 22:01:54 0° 36° (NE) 3,057 7.5 -13.8°
